Location: Toronto
(43.6672°N, 79.4170°W)
Time: 16:02:26
(UTC-05:00)

ISS - Visible Passes

Search period start: 14 February 2016 00:00
Search period end: 24 February 2016 00:00
Orbit: 398 x 407 km, 51.6° (Epoch: 14 February)

Date Brightness Start Highest point End Pass type
(mag) Time Alt. Az. Time Alt. Az. Time Alt. Az.
14 Feb -1.7 18:23:10 10° NW 18:25:50 23° NNE 18:28:21 11° ENE visible
14 Feb -1.3 19:59:25 10° NW 20:00:59 26° NW 20:00:59 26° NW visible
15 Feb -2.9 19:06:40 10° NW 19:09:48 44° NNE 19:10:32 37° ENE visible
16 Feb -2.3 18:13:54 10° NW 18:16:50 31° NNE 18:19:46 10° E visible
16 Feb -2.2 19:50:14 10° WNW 19:52:47 42° WSW 19:52:47 42° WSW visible
17 Feb -3.4 18:57:18 10° WNW 19:00:33 87° NNE 19:02:29 22° ESE visible
17 Feb 0.2 20:35:07 10° WSW 20:35:08 10° WSW 20:35:08 10° WSW visible
18 Feb -1.2 19:41:15 10° W 19:43:52 23° SW 19:44:58 19° SSW visible
19 Feb -2.2 18:47:58 10° WNW 18:51:04 42° SW 18:54:08 10° SSE visible
20 Feb 0.0 19:33:33 10° WSW 19:34:04 10° SW 19:34:35 10° SW visible
21 Feb -0.6 18:38:54 10° W 18:41:19 19° SW 18:43:42 10° S visible
